Weather History for KI75 - February, 2014

Change the Weather History Date:

Thursday, February 13, 2014

  Actual Average (KLWD) Record (KLWD)
Temperature  
Mean Temperature 33 °F 28 °F  
Max Temperature 45 °F 37 °F 61 °F (1967)
Min Temperature 21 °F 18 °F -3 °F (1986)
Degree Days  
Heating Degree Days 32 37  
Month to date heating degree days 504  
Since 1 July heating degree days 4196  
Cooling Degree Days 0 0  
Month to date cooling degree days 0  
Year to date cooling degree days 0  
Moisture  
Dew Point 22 °F    
Average Humidity 72    
Maximum Humidity 88    
Minimum Humidity 48    
Precipitation  
Precipitation 0.00 in 0.05 in 0.95 in (1949)
Month to date precipitation 0.63  
Sea Level Pressure  
Sea Level Pressure 29.73 in    
Wind  
Wind Speed 11 mph (WSW)    
Max Wind Speed 20 mph    
Max Gust Speed 26 mph    
Visibility 10 miles    
Events      
T = Trace of Precipitation, MM = Missing Value Source: NWS Daily Summary

Daily Weather History Graph

Daily Weather History Graph

Search for Another Location

Airport or City:

Trip Planner

Search our weather history database for the weather conditions in past years. The results will help you decide how hot, cold, wet, or windy it might be!

Date:

Astronomy

Feb. 13, 2014 Rise Set
Actual Time 7:11 AM CST 5:46 PM CST
Civil Twilight 6:43 AM CST 6:15 PM CST
Nautical Twilight 6:11 AM CST 6:47 PM CST
Astronomical Twilight 5:39 AM CST 7:19 PM CST
Moon 4:55 PM CST (2/13) 6:05 AM CST (2/13)
Length of Visible Light 11h 31m
Length of Day
10h 35m
Waxing Gibbous, 99% of the Moon is Illuminated
Feb 13
Waxing Gibbous
Feb 14
Full
Feb 22
Last Quarter
Mar 1
New
Mar 8
First Quarter

Hourly Weather History & Observations

Time (CST) Temp. Windchill Dew Point Humidity Pressure Visibility Wind Dir Wind Speed Gust Speed Precip Events Conditions
12:15 AM 21.0 °F 12.4 °F 16.5 °F 83% 29.89 in 10.0 mi South 6.9 mph - N/A   Overcast
12:35 AM 21.2 °F 12.6 °F 16.7 °F 83% 29.88 in 10.0 mi South 6.9 mph - N/A   Overcast
12:55 AM 21.7 °F 12.3 °F 16.7 °F 81% 29.88 in 10.0 mi SSW 8.1 mph - N/A   Overcast
1:15 AM 21.9 °F 12.5 °F 17.4 °F 83% 29.89 in 10.0 mi SW 8.1 mph - N/A   Overcast
1:35 AM 22.1 °F 12.8 °F 17.4 °F 82% 29.88 in 10.0 mi SSW 8.1 mph - N/A   Overcast
1:55 AM 22.1 °F 12.8 °F 17.6 °F 83% 29.85 in 10.0 mi South 8.1 mph - N/A   Overcast
2:15 AM 22.5 °F 13.2 °F 18.0 °F 83% 29.84 in 10.0 mi South 8.1 mph - N/A   Overcast
2:35 AM 22.6 °F 12.6 °F 18.3 °F 83% 29.82 in 10.0 mi South 9.2 mph - N/A   Overcast
2:55 AM 22.8 °F 10.9 °F 18.5 °F 83% 29.79 in 10.0 mi South 12.7 mph - N/A   Overcast
3:15 AM 22.8 °F 11.5 °F 18.5 °F 83% 29.77 in 10.0 mi SSE 11.5 mph 17.3 mph N/A   Overcast
3:35 AM 23.0 °F 12.4 °F 18.9 °F 84% 29.80 in 10.0 mi SSW 10.4 mph - N/A   Overcast
3:55 AM 22.5 °F 11.7 °F 18.5 °F 85% 29.79 in 10.0 mi SSW 10.4 mph - N/A   Mostly Cloudy
4:15 AM 22.6 °F 11.9 °F 18.9 °F 85% 29.76 in 10.0 mi South 10.4 mph - N/A   Scattered Clouds
4:35 AM 23.0 °F 13.1 °F 19.2 °F 85% 29.79 in 10.0 mi SSW 9.2 mph - N/A   Mostly Cloudy
4:55 AM 23.0 °F 13.1 °F 19.2 °F 85% 29.78 in 7.0 mi South 9.2 mph - N/A   Mostly Cloudy
5:15 AM 23.0 °F 13.1 °F 19.4 °F 86% 29.76 in 7.0 mi South 9.2 mph - N/A   Scattered Clouds
5:35 AM 23.0 °F 12.4 °F 19.4 °F 86% 29.75 in 7.0 mi South 10.4 mph - N/A   Scattered Clouds
5:55 AM 23.2 °F 10.3 °F 19.8 °F 87% 29.74 in 7.0 mi South 15.0 mph 21.9 mph N/A   Clear
6:15 AM 23.0 °F 10.6 °F 19.6 °F 87% 29.74 in 7.0 mi South 13.8 mph - N/A   Clear
6:35 AM 23.0 °F 9.6 °F 19.9 °F 88% 29.72 in 7.0 mi South 16.1 mph - N/A   Scattered Clouds
6:55 AM 23.4 °F 10.6 °F 20.1 °F 87% 29.71 in 7.0 mi SSW 15.0 mph - N/A   Clear
7:15 AM 24.3 °F 10.4 °F 21.0 °F 87% 29.71 in 7.0 mi SSW 18.4 mph - N/A   Scattered Clouds
7:35 AM 24.4 °F 13.0 °F 21.0 °F 87% 29.72 in 7.0 mi SSW 12.7 mph - N/A   Scattered Clouds
7:55 AM 25.3 °F 14.1 °F 21.2 °F 84% 29.71 in 7.0 mi SSW 12.7 mph 18.4 mph N/A   Mostly Cloudy
8:15 AM 26.4 °F 14.5 °F 21.9 °F 83% 29.71 in 7.0 mi SSW 15.0 mph - N/A   Scattered Clouds
8:35 AM 27.1 °F 15.9 °F 22.1 °F 81% 29.71 in 7.0 mi SSW 13.8 mph - N/A   Scattered Clouds
8:55 AM 28.2 °F 16.8 °F 22.8 °F 80% 29.71 in 7.0 mi SW 15.0 mph 23.0 mph N/A   Clear
9:15 AM 29.3 °F 18.2 °F 23.2 °F 78% 29.71 in 10.0 mi SW 15.0 mph - N/A   Clear
9:35 AM 30.6 °F 20.2 °F 23.9 °F 76% 29.71 in 10.0 mi SW 13.8 mph - N/A   Clear
9:55 AM 32.0 °F 22.1 °F 24.6 °F 74% 29.72 in 10.0 mi SW 13.8 mph 19.6 mph N/A   Clear
10:15 AM 33.1 °F 23.9 °F 25.3 °F 73% 29.71 in 10.0 mi SW 12.7 mph - N/A   Clear
10:35 AM 34.9 °F 25.3 °F 26.1 °F 70% 29.70 in 10.0 mi WSW 15.0 mph - N/A   Clear
10:55 AM 35.8 °F 27.8 °F 26.6 °F 69% 29.71 in 10.0 mi WSW 11.5 mph 16.1 mph N/A   Clear
11:15 AM 37.4 °F 28.2 °F 27.1 °F 66% 29.70 in 10.0 mi WSW 16.1 mph - N/A   Clear
11:35 AM 39.0 °F 31.0 °F 27.5 °F 63% 29.70 in 10.0 mi WSW 13.8 mph - N/A   Clear
11:55 AM 39.9 °F 32.1 °F 27.7 °F 62% 29.69 in 10.0 mi WSW 13.8 mph - N/A   Clear
12:15 PM 41.0 °F 32.8 °F 28.2 °F 60% 29.67 in 10.0 mi WSW 16.1 mph 20.7 mph N/A   Clear
12:35 PM 42.1 °F 34.5 °F 28.4 °F 58% 29.66 in 10.0 mi West 15.0 mph 20.7 mph N/A   Clear
12:55 PM 43.0 °F 35.4 °F 28.0 °F 56% 29.66 in 10.0 mi West 16.1 mph - N/A   Clear
1:35 PM 44.1 °F 37.1 °F 28.0 °F 53% 29.64 in 10.0 mi West 15.0 mph 21.9 mph N/A   Clear
1:55 PM 44.8 °F 37.7 °F 28.2 °F 52% 29.63 in 10.0 mi West 16.1 mph - N/A   Clear
2:15 PM 45.9 °F 39.1 °F 27.3 °F 48% 29.63 in 10.0 mi West 16.1 mph 20.7 mph N/A   Clear
2:35 PM 45.3 °F 37.6 °F 28.4 °F 52% 29.64 in 10.0 mi WNW 19.6 mph 25.3 mph N/A   Clear
2:55 PM 45.5 °F 37.8 °F 28.9 °F 52% 29.64 in 10.0 mi WNW 19.6 mph 23.0 mph N/A   Clear
3:15 PM 45.7 °F 39.1 °F 29.1 °F 52% 29.65 in 10.0 mi WNW 15.0 mph 21.9 mph N/A   Clear
3:35 PM 45.7 °F 38.6 °F 28.2 °F 51% 29.66 in 10.0 mi West 17.3 mph 26.5 mph N/A   Clear
3:55 PM 45.3 °F 39.0 °F 28.6 °F 52% 29.66 in 10.0 mi WNW 13.8 mph 24.2 mph N/A   Clear
4:15 PM 45.0 °F 38.9 °F 27.9 °F 51% 29.67 in 10.0 mi WNW 12.7 mph - N/A   Clear
4:35 PM 44.2 °F 38.0 °F 28.6 °F 54% 29.68 in 10.0 mi NW 12.7 mph 19.6 mph N/A   Clear
4:55 PM 42.4 °F 36.5 °F 28.2 °F 57% 29.69 in 10.0 mi NW 10.4 mph - N/A   Clear
5:15 PM 40.6 °F 33.4 °F 26.8 °F 58% 29.70 in 10.0 mi NW 12.7 mph 20.7 mph N/A   Clear
5:35 PM 39.2 °F 31.2 °F 26.1 °F 59% 29.71 in 10.0 mi NW 13.8 mph - N/A   Clear
5:55 PM 37.4 °F 30.3 °F 26.1 °F 64% 29.71 in 10.0 mi NW 10.4 mph - N/A   Clear
6:15 PM 36.0 °F 28.5 °F 25.3 °F 65% 29.71 in 10.0 mi NW 10.4 mph - N/A   Clear
6:35 PM 35.2 °F 28.1 °F 24.4 °F 65% 29.72 in 10.0 mi NW 9.2 mph - N/A   Clear
6:55 PM 34.3 °F 27.7 °F 23.9 °F 66% 29.73 in 10.0 mi NW 8.1 mph - N/A   Clear
7:15 PM 32.4 °F 26.0 °F 23.5 °F 70% 29.74 in 10.0 mi NNW 6.9 mph - N/A   Clear
7:35 PM 31.8 °F 24.6 °F 23.7 °F 72% 29.74 in 10.0 mi NW 8.1 mph - N/A   Clear
7:55 PM 31.1 °F 25.4 °F 22.1 °F 69% 29.75 in 10.0 mi NW 5.8 mph - N/A   Clear
8:15 PM 29.3 °F 19.6 °F 21.2 °F 72% 29.75 in 10.0 mi NNW 11.5 mph - N/A   Clear
8:35 PM 28.4 °F 19.7 °F 19.9 °F 71% 29.76 in 10.0 mi NNW 9.2 mph - N/A   Clear
8:55 PM 27.5 °F 16.8 °F 18.9 °F 70% 29.76 in 10.0 mi NNW 12.7 mph - N/A   Clear
9:15 PM 26.8 °F 16.5 °F 16.9 °F 66% 29.76 in 10.0 mi NNW 11.5 mph 17.3 mph N/A   Clear
9:35 PM 25.7 °F 15.7 °F 16.7 °F 69% 29.76 in 10.0 mi NNW 10.4 mph - N/A   Clear
9:55 PM 24.8 °F 15.3 °F 17.4 °F 74% 29.75 in 10.0 mi North 9.2 mph - N/A   Scattered Clouds
10:15 PM 23.7 °F 13.3 °F 17.1 °F 76% 29.75 in 10.0 mi North 10.4 mph - N/A   Scattered Clouds
10:35 PM 23.2 °F 14.1 °F 16.0 °F 74% 29.74 in 10.0 mi North 8.1 mph - N/A   Clear
10:55 PM 22.1 °F 13.7 °F 15.1 °F 74% 29.74 in 10.0 mi North 6.9 mph - N/A   Scattered Clouds
11:15 PM 21.2 °F 11.7 °F 14.2 °F 74% 29.74 in 10.0 mi North 8.1 mph - N/A   Scattered Clouds
11:35 PM 21.6 °F 12.1 °F 13.6 °F 72% 29.72 in 10.0 mi North 8.1 mph - N/A   Mostly Cloudy
11:55 PM 21.2 °F 16.4 °F 12.9 °F 70% 29.73 in 10.0 mi North 3.5 mph - N/A   Mostly Cloudy